Location: Baix
(44.7118°N, 4.7648°E)
Time: 19:20:04
(UTC+00:00)

NOSS 2-3 (C) - Pass Details

Date: 07 August 2020
Orbit: 572 x 1639 km, 63.4° (Epoch: 22 September)

Event Time Altitude Azimuth Distance (km) Brightness Sun altitude
Exits shadow 03:01:12 21° 198° (SSW) 1,354 4.8 -14.7°
Maximum altitude 03:03:55 62° 123° (ESE) 708 3.9 -14.3°
Drops below altitude 10° 03:08:42 10° 43° (NE) 2,208 7.8 -13.7°
Sets 03:11:20 0° 40° (NE) 3,275 9.1 -13.3°
